| time (UTC) | temp F | wind direction | speed MPH | gust MPH | rain 1hr in | rain 24hr in | rain mn in | humidity % | barometer mb |
| 20260504023804 | 66 | 0 | 0.0 | 1.0 | 0.00 | 0.00 | 0.00 | 75 | 1018.6 |
| 20260504023304 | 67 | 0 | 0.0 | 1.0 | 0.00 | 0.00 | 0.00 | 74 | 1018.6 |
| 20260504023058 | 66 | 0 | 0.0 | 0.0 | 0.00 | 0.00 | 0.00 | 75 | 1018.4 |
| 20260504022804 | 67 | 0 | 0.0 | 1.0 | 0.00 | 0.00 | 0.00 | 74 | 1018.6 |
| 20260504022304 | 67 | 0 | 0.0 | 1.0 | 0.00 | 0.00 | 0.00 | 74 | 1018.6 |
| 20260504021804 | 67 | 0 | 0.0 | 0.0 | 0.00 | 0.00 | 0.00 | 72 | 1018.3 |
| 20260504021559 | 66 | 0 | 0.0 | 1.0 | 0.00 | 0.00 | 0.00 | 74 | 1018.4 |
| 20260504021304 | 67 | 0 | 0.0 | 0.0 | 0.00 | 0.00 | 0.00 | 72 | 1018.3 |
| 20260504020803 | 67 | 0 | 0.0 | 3.0 | 0.00 | 0.00 | 0.00 | 72 | 1018.3 |
| 20260504020304 | 68 | 0 | 0.0 | 3.0 | 0.00 | 0.00 | 0.00 | 70 | 1017.9 |
| 20260504020059 | 67 | 0 | 0.0 | 0.0 | 0.00 | 0.00 | 0.00 | 72 | 1018.2 |
| 20260504015804 | 68 | 0 | 0.0 | 3.0 | 0.00 | 0.00 | 0.00 | 70 | 1017.9 |
| 20260504014804 | 69 | 0 | 0.0 | 3.0 | 0.00 | 0.00 | 0.00 | 69 | 1017.9 |
| 20260504014608 | 68 | 0 | 1.0 | 3.0 | 0.00 | 0.00 | 0.00 | 70 | 1017.9 |
| 20260504014304 | 69 | 0 | 0.0 | 3.0 | 0.00 | 0.00 | 0.00 | 67 | 1017.9 |
| 20260504013804 | 69 | 0 | 0.0 | 3.0 | 0.00 | 0.00 | 0.00 | 67 | 1017.9 |
| 20260504013304 | 69 | 0 | 1.0 | 7.0 | 0.00 | 0.00 | 0.00 | 67 | 1017.9 |
| 20260504013101 | 68 | 0 | 0.0 | 3.0 | 0.00 | 0.00 | 0.00 | 67 | 1017.8 |
| 20260504012304 | 69 | 207 | 2.0 | 7.0 | 0.00 | 0.00 | 0.00 | 67 | 1017.6 |
| 20260504011804 | 69 | 222 | 3.0 | 6.0 | 0.00 | 0.00 | 0.00 | 67 | 1017.6 |
| 20260504011605 | 69 | 207 | 3.0 | 7.0 | 0.00 | 0.00 | 0.00 | 67 | 1017.6 |
| 20260504011304 | 69 | 222 | 3.0 | 6.0 | 0.00 | 0.00 | 0.00 | 67 | 1017.6 |
| 20260504010803 | 69 | 222 | 3.0 | 8.0 | 0.00 | 0.00 | 0.00 | 67 | 1017.6 |
| 20260504010304 | 70 | 245 | 5.0 | 8.0 | 0.00 | 0.00 | 0.00 | 64 | 1017.6 |
| 20260504010100 | 69 | 222 | 4.0 | 6.0 | 0.00 | 0.00 | 0.00 | 67 | 1017.6 |
| 20260504005804 | 70 | 245 | 5.0 | 8.0 | 0.00 | 0.00 | 0.00 | 64 | 1017.6 |
| 20260504004804 | 70 | 226 | 5.0 | 10.0 | 0.00 | 0.00 | 0.00 | 63 | 1017.6 |
| 20260504004554 | 69 | 245 | 4.0 | 8.0 | 0.00 | 0.00 | 0.00 | 64 | 1017.5 |
| 20260504004304 | 70 | 226 | 5.0 | 10.0 | 0.00 | 0.00 | 0.00 | 63 | 1017.6 |
| 20260504003803 | 70 | 226 | 5.0 | 10.0 | 0.00 | 0.00 | 0.00 | 63 | 1017.6 |
| 20260504003304 | 70 | 224 | 6.0 | 9.0 | 0.00 | 0.00 | 0.00 | 63 | 1017.6 |
| 20260504003059 | 69 | 226 | 5.0 | 10.0 | 0.00 | 0.00 | 0.00 | 63 | 1017.4 |
| 20260504002804 | 70 | 224 | 6.0 | 9.0 | 0.00 | 0.00 | 0.00 | 63 | 1017.6 |
| 20260504002304 | 70 | 224 | 6.0 | 12.0 | 0.00 | 0.00 | 0.00 | 63 | 1017.6 |
| 20260504001803 | 71 | 220 | 6.0 | 12.0 | 0.00 | 0.00 | 0.00 | 60 | 1017.6 |
| 20260504001604 | 70 | 224 | 5.0 | 9.0 | 0.00 | 0.00 | 0.00 | 63 | 1017.6 |
| 20260504001303 | 71 | 220 | 6.0 | 12.0 | 0.00 | 0.00 | 0.00 | 60 | 1017.6 |
| 20260504000804 | 71 | 220 | 6.0 | 12.0 | 0.00 | 0.00 | 0.00 | 60 | 1017.6 |
| 20260504000304 | 71 | 214 | 7.0 | 12.0 | 0.00 | 0.00 | 0.00 | 59 | 1017.6 |
| 20260504000056 | 70 | 220 | 7.0 | 12.0 | 0.00 | 0.00 | 0.00 | 60 | 1017.5 |
| 20260503235304 | 71 | 207 | 7.0 | 12.0 | 0.00 | 0.00 | 0.00 | 58 | 1017.6 |
| 20260503234804 | 71 | 207 | 7.0 | 13.0 | 0.00 | 0.00 | 0.00 | 58 | 1017.6 |
| 20260503234556 | 70 | 207 | 8.0 | 12.0 | 0.00 | 0.00 | 0.00 | 58 | 1017.4 |
| 20260503233804 | 72 | 200 | 8.0 | 13.0 | 0.00 | 0.00 | 0.00 | 55 | 1017.6 |
| 20260503233304 | 72 | 200 | 8.0 | 13.0 | 0.00 | 0.00 | 0.00 | 55 | 1017.6 |
| 20260503233058 | 71 | 200 | 10.0 | 13.0 | 0.00 | 0.00 | 0.00 | 55 | 1017.4 |
| 20260503232305 | 72 | 219 | 7.0 | 13.0 | 0.00 | 0.00 | 0.00 | 52 | 1017.6 |
| 20260503231804 | 73 | 222 | 8.0 | 12.0 | 0.00 | 0.00 | 0.00 | 48 | 1017.3 |
| 20260503231558 | 72 | 219 | 9.0 | 13.0 | 0.00 | 0.00 | 0.00 | 52 | 1017.4 |
| 20260503231304 | 73 | 222 | 8.0 | 12.0 | 0.00 | 0.00 | 0.00 | 48 | 1017.3 |
| 20260503230805 | 73 | 222 | 8.0 | 13.0 | 0.00 | 0.00 | 0.00 | 48 | 1017.3 |
| 20260503230304 | 72 | 219 | 8.0 | 13.0 | 0.00 | 0.00 | 0.00 | 45 | 1017.6 |
| 20260503230059 | 72 | 222 | 7.0 | 11.0 | 0.00 | 0.00 | 0.00 | 48 | 1017.3 |
| 20260503225804 | 72 | 219 | 8.0 | 13.0 | 0.00 | 0.00 | 0.00 | 45 | 1017.6 |
| 20260503225305 | 72 | 219 | 8.0 | 15.0 | 0.00 | 0.00 | 0.00 | 45 | 1017.6 |
| 20260503224804 | 72 | 243 | 9.0 | 15.0 | 0.00 | 0.00 | 0.00 | 46 | 1017.3 |
| 20260503224557 | 72 | 219 | 9.0 | 13.0 | 0.00 | 0.00 | 0.00 | 45 | 1017.5 |
| 20260503224304 | 72 | 243 | 9.0 | 15.0 | 0.00 | 0.00 | 0.00 | 46 | 1017.3 |
| 20260503223803 | 72 | 243 | 9.0 | 15.0 | 0.00 | 0.00 | 0.00 | 46 | 1017.3 |
| 20260503223304 | 72 | 233 | 9.0 | 14.0 | 0.00 | 0.00 | 0.00 | 47 | 1017.3 |
| 20260503223059 | 72 | 243 | 12.0 | 15.0 | 0.00 | 0.00 | 0.00 | 46 | 1017.3 |
| 20260503222804 | 72 | 233 | 9.0 | 14.0 | 0.00 | 0.00 | 0.00 | 47 | 1017.3 |
| 20260503222304 | 72 | 233 | 9.0 | 14.0 | 0.00 | 0.00 | 0.00 | 47 | 1017.3 |
| 20260503221557 | 72 | 233 | 9.0 | 14.0 | 0.00 | 0.00 | 0.00 | 47 | 1017.3 |
| 20260503221304 | 72 | 252 | 8.0 | 15.0 | 0.00 | 0.00 | 0.00 | 49 | 1017.6 |
| 20260503220804 | 72 | 252 | 8.0 | 15.0 | 0.00 | 0.00 | 0.00 | 49 | 1017.6 |
| 20260503220304 | 72 | 243 | 12.0 | 17.0 | 0.00 | 0.00 | 0.00 | 48 | 1017.6 |
| 20260503220056 | 71 | 252 | 10.0 | 15.0 | 0.00 | 0.00 | 0.00 | 49 | 1017.5 |
| 20260503215804 | 72 | 220 | 15.0 | 17.0 | 0.00 | 0.00 | 0.00 | 43 | 1017.6 |
| 20260503215304 | 72 | 220 | 15.0 | 17.0 | 0.00 | 0.00 | 0.00 | 43 | 1017.6 |
| 20260503214804 | 72 | 220 | 14.0 | 17.0 | 0.00 | 0.00 | 0.00 | 43 | 1017.6 |
| 20260503214556 | 71 | 220 | 12.0 | 17.0 | 0.00 | 0.00 | 0.00 | 43 | 1017.6 |
| 20260503214304 | 72 | 214 | 12.0 | 15.0 | 0.00 | 0.00 | 0.00 | 46 | 1017.9 |
| 20260503213804 | 72 | 214 | 12.0 | 15.0 | 0.00 | 0.00 | 0.00 | 46 | 1017.9 |
| 20260503213110 | 71 | 214 | 11.0 | 15.0 | 0.00 | 0.00 | 0.00 | 46 | 1017.8 |
| 20260503212803 | 73 | 221 | 14.0 | 12.0 | 0.00 | 0.00 | 0.00 | 45 | 1018.3 |
| 20260503212305 | 73 | 221 | 14.0 | 12.0 | 0.00 | 0.00 | 0.00 | 45 | 1018.3 |
| 20260503211804 | 76 | 82 | 2.0 | 12.0 | 0.00 | 0.00 | 0.00 | 36 | 1017.9 |
| 20260503211554 | 73 | 221 | 8.0 | 12.0 | 0.00 | 0.00 | 0.00 | 45 | 1018.1 |
| 20260503211304 | 76 | 82 | 2.0 | 12.0 | 0.00 | 0.00 | 0.00 | 36 | 1017.9 |
| 20260503210304 | 76 | 307 | 1.0 | 7.0 | 0.00 | 0.00 | 0.00 | 31 | 1018.3 |
| 20260503210105 | 75 | 82 | 5.0 | 12.0 | 0.00 | 0.00 | 0.00 | 36 | 1018.0 |
| 20260503205803 | 76 | 307 | 1.0 | 7.0 | 0.00 | 0.00 | 0.00 | 31 | 1018.3 |
| 20260503205304 | 76 | 307 | 1.0 | 9.0 | 0.00 | 0.00 | 0.00 | 31 | 1018.3 |
| 20260503204804 | 76 | 309 | 2.0 | 9.0 | 0.00 | 0.00 | 0.00 | 32 | 1018.3 |
| 20260503204600 | 76 | 307 | 1.0 | 7.0 | 0.00 | 0.00 | 0.00 | 31 | 1018.3 |
| 20260503204303 | 76 | 309 | 2.0 | 9.0 | 0.00 | 0.00 | 0.00 | 32 | 1018.3 |
| 20260503203805 | 76 | 309 | 2.0 | 13.0 | 0.00 | 0.00 | 0.00 | 32 | 1018.3 |
| 20260503203303 | 76 | 28 | 8.0 | 13.0 | 0.00 | 0.00 | 0.00 | 33 | 1018.6 |
| 20260503203103 | 76 | 309 | 2.0 | 9.0 | 0.00 | 0.00 | 0.00 | 32 | 1018.3 |
| 20260503202304 | 76 | 28 | 8.0 | 13.0 | 0.00 | 0.00 | 0.00 | 33 | 1018.6 |
| 20260503201804 | 75 | 35 | 2.0 | 13.0 | 0.00 | 0.00 | 0.00 | 32 | 1018.6 |
| 20260503201610 | 75 | 28 | 7.0 | 13.0 | 0.00 | 0.00 | 0.00 | 33 | 1018.4 |
| 20260503201303 | 75 | 92 | 0.0 | 9.0 | 0.00 | 0.00 | 0.00 | 31 | 1018.6 |
| 20260503200804 | 75 | 92 | 0.0 | 9.0 | 0.00 | 0.00 | 0.00 | 31 | 1018.6 |
| 20260503200304 | 75 | 92 | 2.0 | 9.0 | 0.00 | 0.00 | 0.00 | 31 | 1018.6 |
| 20260503200105 | 75 | 92 | 3.0 | 9.0 | 0.00 | 0.00 | 0.00 | 31 | 1018.6 |
| 20260503195804 | 75 | 311 | 3.0 | 5.0 | 0.00 | 0.00 | 0.00 | 33 | 1019.3 |
| 20260503195304 | 75 | 311 | 3.0 | 14.0 | 0.00 | 0.00 | 0.00 | 33 | 1019.3 |
| 20260503194607 | 75 | 311 | 2.0 | 5.0 | 0.00 | 0.00 | 0.00 | 33 | 1019.1 |
| 20260503194304 | 75 | 24 | 3.0 | 14.0 | 0.00 | 0.00 | 0.00 | 37 | 1019.6 |
| 20260503193804 | 75 | 24 | 3.0 | 14.0 | 0.00 | 0.00 | 0.00 | 37 | 1019.6 |
| 20260503193304 | 74 | 61 | 3.0 | 12.0 | 0.00 | 0.00 | 0.00 | 37 | 1019.6 |
| 20260503193110 | 75 | 24 | 3.0 | 14.0 | 0.00 | 0.00 | 0.00 | 37 | 1019.6 |
| 20260503192805 | 74 | 61 | 3.0 | 12.0 | 0.00 | 0.00 | 0.00 | 37 | 1019.6 |
| 20260503192305 | 74 | 61 | 3.0 | 12.0 | 0.00 | 0.00 | 0.00 | 37 | 1019.6 |
| 20260503191804 | 74 | 325 | 5.0 | 10.0 | 0.00 | 0.00 | 0.00 | 38 | 1020.0 |
| 20260503191608 | 74 | 61 | 2.0 | 12.0 | 0.00 | 0.00 | 0.00 | 37 | 1019.5 |
| 20260503191304 | 74 | 325 | 5.0 | 10.0 | 0.00 | 0.00 | 0.00 | 38 | 1020.0 |
| 20260503190804 | 74 | 325 | 5.0 | 10.0 | 0.00 | 0.00 | 0.00 | 38 | 1020.0 |
| 20260503190303 | 74 | 43 | 7.0 | 10.0 | 0.00 | 0.00 | 0.00 | 36 | 1020.0 |
| 20260503190059 | 73 | 325 | 4.0 | 10.0 | 0.00 | 0.00 | 0.00 | 38 | 1019.9 |
| 20260503185804 | 74 | 43 | 7.0 | 10.0 | 0.00 | 0.00 | 0.00 | 36 | 1020.0 |
| 20260503185305 | 74 | 43 | 7.0 | 10.0 | 0.00 | 0.00 | 0.00 | 36 | 1020.0 |
| 20260503184804 | 74 | 9 | 2.0 | 10.0 | 0.00 | 0.00 | 0.00 | 35 | 1020.3 |
| 20260503184608 | 73 | 43 | 7.0 | 10.0 | 0.00 | 0.00 | 0.00 | 36 | 1020.1 |
| 20260503183803 | 74 | 309 | 1.0 | 10.0 | 0.00 | 0.00 | 0.00 | 35 | 1020.3 |
| 20260503183304 | 73 | 351 | 4.0 | 20.0 | 0.00 | 0.00 | 0.00 | 34 | 1020.4 |
| 20260503183108 | 73 | 309 | 1.0 | 10.0 | 0.00 | 0.00 | 0.00 | 35 | 1020.4 |
| 20260503182804 | 73 | 25 | 6.0 | 20.0 | 0.00 | 0.00 | 0.00 | 32 | 1020.7 |
| 20260503181804 | 73 | 25 | 6.0 | 20.0 | 0.00 | 0.00 | 0.00 | 32 | 1020.7 |
| 20260503181608 | 73 | 25 | 4.0 | 19.0 | 0.00 | 0.00 | 0.00 | 32 | 1020.5 |
| 20260503181303 | 72 | 61 | 7.0 | 17.0 | 0.00 | 0.00 | 0.00 | 35 | 1020.7 |
| 20260503180803 | 72 | 61 | 7.0 | 17.0 | 0.00 | 0.00 | 0.00 | 35 | 1020.7 |
| 20260503180056 | 71 | 61 | 6.0 | 17.0 | 0.00 | 0.00 | 0.00 | 35 | 1020.5 |
| 20260503175804 | 73 | 15 | 2.0 | 14.0 | 0.00 | 0.00 | 0.00 | 37 | 1020.7 |
| 20260503175304 | 73 | 15 | 2.0 | 17.0 | 0.00 | 0.00 | 0.00 | 37 | 1020.7 |
| 20260503174804 | 72 | 71 | 8.0 | 17.0 | 0.00 | 0.00 | 0.00 | 31 | 1020.7 |
| 20260503174553 | 72 | 15 | 6.0 | 14.0 | 0.00 | 0.00 | 0.00 | 37 | 1020.6 |
| 20260503173101 | 71 | 71 | 10.0 | 17.0 | 0.00 | 0.00 | 0.00 | 31 | 1020.6 |
| 20260503172804 | 72 | 40 | 12.0 | 15.0 | 0.00 | 0.00 | 0.00 | 38 | 1021.0 |
| 20260503171804 | 72 | 27 | 7.0 | 12.0 | 0.00 | 0.00 | 0.00 | 36 | 1021.0 |
| 20260503171558 | 72 | 40 | 5.0 | 15.0 | 0.00 | 0.00 | 0.00 | 38 | 1020.8 |
| 20260503171304 | 72 | 27 | 7.0 | 12.0 | 0.00 | 0.00 | 0.00 | 36 | 1021.0 |
| 20260503170304 | 71 | 38 | 6.0 | 13.0 | 0.00 | 0.00 | 0.00 | 40 | 1021.0 |
| 20260503150303 | 69 | 51 | 4.0 | 12.0 | 0.00 | 0.00 | 0.00 | 46 | 1021.7 |
| 20260503140304 | 66 | 33 | 3.0 | 9.0 | 0.00 | 0.00 | 0.00 | 52 | 1021.0 |
| 20260503131303 | 62 | 25 | 6.0 | 8.0 | 0.00 | 0.00 | 0.00 | 61 | 1020.7 |
| 20260503130804 | 62 | 25 | 6.0 | 8.0 | 0.00 | 0.00 | 0.00 | 61 | 1020.7 |
| 20260503130304 | 61 | 49 | 2.0 | 3.0 | 0.00 | 0.00 | 0.00 | 67 | 1020.7 |
| 20260503120106 | 56 | 0 | 0.0 | 2.0 | 0.00 | 0.01 | 0.00 | 74 | 1020.2 |
| 20260503110304 | 53 | 0 | 0.0 | 1.0 | 0.00 | 0.12 | 0.00 | 80 | 1019.6 |
| 20260503090303 | 55 | 0 | 0.0 | 1.0 | 0.00 | 0.50 | 0.00 | 73 | 1019.0 |
| 20260503090105 | 55 | 0 | 0.0 | 2.0 | 0.00 | 0.49 | 0.00 | 72 | 1019.2 |
| 20260503081628 | 55 | 0 | 0.0 | 2.0 | 0.00 | 0.84 | 0.00 | 73 | 1019.0 |
| 20260503081304 | 56 | 356 | 1.0 | 3.0 | 0.00 | 0.83 | 0.00 | 72 | 1019.0 |
| 20260503080804 | 56 | 356 | 1.0 | 3.0 | 0.00 | 0.83 | 0.00 | 72 | 1019.0 |
| 20260503080304 | 56 | 0 | 0.0 | 3.0 | 0.00 | 0.89 | 0.00 | 72 | 1018.6 |
| 20260503080112 | 56 | 356 | 0.0 | 3.0 | 0.00 | 0.84 | 0.00 | 72 | 1018.8 |
| 20260503072804 | 56 | 0 | 0.0 | 2.0 | 0.00 | 0.99 | 0.00 | 72 | 1019.0 |
| 20260503072305 | 56 | 0 | 0.0 | 3.0 | 0.00 | 0.99 | 0.00 | 72 | 1019.0 |
| 20260503071804 | 56 | 0 | 0.0 | 3.0 | 0.00 | 0.99 | 0.00 | 72 | 1018.6 |
| 20260503071557 | 56 | 0 | 0.0 | 2.0 | 0.00 | 1.01 | 0.00 | 72 | 1018.8 |
| 20260503071304 | 56 | 0 | 0.0 | 3.0 | 0.00 | 1.01 | 0.00 | 72 | 1018.6 |
| 20260503070804 | 56 | 0 | 0.0 | 3.0 | 0.00 | 1.01 | 0.00 | 72 | 1018.6 |
| 20260503060304 | 57 | 0 | 0.0 | 0.0 | 0.00 | 1.24 | 0.00 | 70 | 1018.6 |
| 20260503054803 | 57 | 0 | 0.0 | 2.0 | 0.00 | 1.24 | 0.00 | 70 | 1018.6 |
| 20260503054558 | 56 | 0 | 0.0 | 0.0 | 0.00 | 1.24 | 0.00 | 70 | 1018.4 |
| 20260503054304 | 57 | 0 | 0.0 | 2.0 | 0.00 | 1.24 | 0.00 | 70 | 1018.6 |
| 20260503053804 | 57 | 0 | 0.0 | 2.0 | 0.00 | 1.24 | 0.00 | 70 | 1018.6 |
| 20260503053303 | 57 | 0 | 0.0 | 2.0 | 0.00 | 1.24 | 0.00 | 69 | 1018.6 |
| 20260503053053 | 57 | 0 | 0.0 | 2.0 | 0.00 | 1.24 | 0.00 | 70 | 1018.4 |
| 20260503052305 | 57 | 0 | 0.0 | 0.0 | 0.00 | 1.24 | 0.00 | 69 | 1018.6 |
| 20260503051804 | 57 | 0 | 0.0 | 1.0 | 0.00 | 1.24 | 0.00 | 69 | 1018.6 |
| 20260503051558 | 57 | 0 | 0.0 | 0.0 | 0.00 | 1.24 | 0.00 | 69 | 1018.4 |
| 20260503051304 | 58 | 0 | 0.0 | 1.0 | 0.00 | 1.24 | 0.00 | 68 | 1018.3 |
| 20260503050804 | 58 | 0 | 0.0 | 1.0 | 0.00 | 1.24 | 0.00 | 68 | 1018.3 |
| 20260503050304 | 58 | 0 | 0.0 | 1.0 | 0.00 | 1.24 | 0.00 | 67 | 1018.3 |
| 20260503050054 | 57 | 0 | 0.0 | 1.0 | 0.00 | 1.24 | 0.00 | 68 | 1018.4 |
| 20260503045803 | 58 | 0 | 0.0 | 1.0 | 0.00 | 1.24 | 1.24 | 67 | 1018.3 |
| 20260503045305 | 58 | 0 | 0.0 | 1.0 | 0.00 | 1.24 | 1.24 | 67 | 1018.3 |
| 20260503044804 | 58 | 0 | 0.0 | 1.0 | 0.00 | 1.24 | 1.24 | 66 | 1018.3 |
| 20260503044602 | 58 | 0 | 0.0 | 1.0 | 0.00 | 1.28 | 1.24 | 67 | 1018.2 |
| 20260503043304 | 59 | 0 | 0.0 | 0.0 | 0.00 | 1.24 | 1.24 | 64 | 1017.9 |
| 20260503043059 | 58 | 0 | 0.0 | 1.0 | 0.00 | 1.28 | 1.24 | 66 | 1018.1 |
| 20260503042804 | 59 | 0 | 0.0 | 0.0 | 0.00 | 1.24 | 1.24 | 64 | 1017.9 |
| 20260503042305 | 59 | 0 | 0.0 | 3.0 | 0.00 | 1.24 | 1.24 | 64 | 1017.9 |
| 20260503041803 | 60 | 0 | 0.0 | 3.0 | 0.00 | 1.27 | 1.24 | 61 | 1017.6 |
| 20260503041554 | 59 | 0 | 0.0 | 0.0 | 0.00 | 1.28 | 1.24 | 64 | 1017.9 |
| 20260503040804 | 60 | 0 | 0.0 | 3.0 | 0.00 | 1.27 | 1.24 | 61 | 1017.6 |
| 20260503040304 | 60 | 0 | 0.0 | 3.0 | 0.00 | 1.30 | 1.24 | 61 | 1017.6 |
| 20260503040059 | 59 | 0 | 0.0 | 3.0 | 0.00 | 1.28 | 1.24 | 61 | 1017.7 |
| 20260503035804 | 60 | 0 | 0.0 | 1.0 | 0.00 | 1.30 | 1.24 | 62 | 1017.6 |
| 20260503034804 | 60 | 0 | 0.0 | 1.0 | 0.00 | 1.30 | 1.24 | 62 | 1017.6 |
| 20260503034554 | 60 | 0 | 0.0 | 1.0 | 0.00 | 1.32 | 1.24 | 62 | 1017.6 |
| 20260503034304 | 61 | 0 | 0.0 | 1.0 | 0.00 | 1.32 | 1.24 | 60 | 1017.6 |
| 20260503033804 | 61 | 0 | 0.0 | 3.0 | 0.00 | 1.32 | 1.24 | 60 | 1017.6 |
| 20260503033304 | 61 | 304 | 0.0 | 3.0 | 0.00 | 1.32 | 1.24 | 60 | 1017.6 |
| 20260503033129 | 60 | 0 | 0.0 | 1.0 | 0.00 | 1.32 | 1.24 | 60 | 1017.6 |
| 20260503032804 | 61 | 304 | 0.0 | 3.0 | 0.00 | 1.32 | 1.24 | 60 | 1017.6 |
| 20260503031804 | 62 | 0 | 0.0 | 2.0 | 0.00 | 1.32 | 1.24 | 58 | 1017.3 |
| 20260503031600 | 61 | 304 | 0.0 | 4.0 | 0.00 | 1.32 | 1.24 | 60 | 1017.5 |
| 20260503031304 | 62 | 0 | 0.0 | 2.0 | 0.00 | 1.32 | 1.24 | 58 | 1017.3 |
| 20260503030804 | 62 | 0 | 0.0 | 2.0 | 0.00 | 1.32 | 1.24 | 58 | 1017.3 |
| 20260503030304 | 62 | 0 | 0.0 | 2.0 | 0.00 | 1.34 | 1.24 | 58 | 1017.3 |
| 20260503030110 | 61 | 0 | 0.0 | 2.0 | 0.00 | 1.32 | 1.24 | 58 | 1017.3 |
| 20260503025804 | 62 | 0 | 0.0 | 2.0 | 0.00 | 1.34 | 1.24 | 58 | 1017.3 |
| 20260503025305 | 62 | 0 | 0.0 | 3.0 | 0.00 | 1.34 | 1.24 | 58 | 1017.3 |
| 20260503024805 | 63 | 319 | 0.0 | 3.0 | 0.00 | 1.43 | 1.24 | 56 | 1016.9 |
| 20260503024621 | 62 | 0 | 0.0 | 2.0 | 0.00 | 1.62 | 1.24 | 58 | 1017.3 |
| 20260503024305 | 63 | 319 | 0.0 | 3.0 | 0.00 | 1.43 | 1.24 | 56 | 1016.9 |